• Em Portugal
  • Lista de países
  • Para 7 dias
  • Temperatura da água
  • Mapas de satélite
  • Mapa do tempo
  • Widgets de tempo
  • user-avatar
    Iniciar Sessão

    Previsão horária em Bucznik

    Hoje, 16 Agosto, Quinta-feira

    Tempo Temperatura Precipitação Vento Pressão Humidade
    00:00 +16°C° 0 mm 1 m/s 753 mmHg 91%
    01:00 +15°C° 0 mm 1 m/s 753 mmHg 92%
    02:00 +15°C° 0 mm 1 m/s 753 mmHg 93%
    03:00 +15°C° 0 mm 1 m/s 753 mmHg 93%
    04:00 +15°C° 0 mm 1 m/s 753 mmHg 93%
    05:00 +16°C° 0 mm 1 m/s 753 mmHg 89%
    06:00 +18°C° 0 mm 1 m/s 754 mmHg 84%
    07:00 +19°C° 0 mm 1 m/s 754 mmHg 79%
    08:00 +21°C° 0 mm 1 m/s 754 mmHg 73%
    09:00 +22°C° 0 mm 1 m/s 754 mmHg 66%
    10:00 +24°C° 0 mm 1 m/s 754 mmHg 59%
    11:00 +25°C° 0 mm 1 m/s 754 mmHg 55%
    12:00 +26°C° 0 mm 1 m/s 754 mmHg 52%
    13:00 +24°C° 0 mm 0 m/s 754 mmHg 48%
    14:00 +26°C° 0 mm 1 m/s 754 mmHg 47%
    15:00 +26°C° 0 mm 1 m/s 753 mmHg 47%
    16:00 +26°C° 0 mm 1 m/s 753 mmHg 46%
    17:00 +25°C° 0 mm 1 m/s 753 mmHg 52%
    18:00 +23°C° 0 mm 2 m/s 753 mmHg 58%
    19:00 +21°C° 0 mm 2 m/s 753 mmHg 64%
    20:00 +20°C° 0 mm 2 m/s 753 mmHg 67%
    21:00 +20°C° 0 mm 2 m/s 753 mmHg 69%
    22:00 +19°C° 0 mm 2 m/s 753 mmHg 71%
    23:00 +18°C° 0 mm 2 m/s 753 mmHg 73%

    Amanhã, 17 Agosto, Sexta-feira

    Tempo Temperatura Precipitação Vento Pressão Humidade
    00:00 +18°C° 0 mm 2 m/s 753 mmHg 74%
    01:00 +18°C° 0 mm 2 m/s 753 mmHg 75%
    02:00 +17°C° 0 mm 2 m/s 753 mmHg 77%
    03:00 +17°C° 0 mm 2 m/s 753 mmHg 79%
    04:00 +17°C° 0 mm 2 m/s 753 mmHg 81%
    05:00 +18°C° 0 mm 2 m/s 753 mmHg 78%
    06:00 +19°C° 0 mm 3 m/s 753 mmHg 76%
    07:00 +20°C° 0 mm 3 m/s 753 mmHg 73%
    08:00 +22°C° 0 mm 3 m/s 753 mmHg 67%
    09:00 +24°C° 0 mm 2 m/s 753 mmHg 60%
    10:00 +26°C° 0 mm 2 m/s 753 mmHg 54%
    11:00 +26°C° 0 mm 2 m/s 753 mmHg 52%
    12:00 +27°C° 0 mm 2 m/s 753 mmHg 50%
    13:00 +27°C° 0 mm 2 m/s 752 mmHg 48%
    14:00 +27°C° 0 mm 2 m/s 752 mmHg 50%
    15:00 +27°C° 0 mm 2 m/s 752 mmHg 52%
    16:00 +27°C° 0 mm 2 m/s 751 mmHg 54%
    17:00 +26°C° 0 mm 1 m/s 751 mmHg 56%
    18:00 +25°C° 0 mm 1 m/s 751 mmHg 59%
    19:00 +24°C° 0 mm 1 m/s 751 mmHg 62%
    20:00 +23°C° 0 mm 1 m/s 751 mmHg 62%
    21:00 +23°C° 0 mm 2 m/s 751 mmHg 62%
    22:00 +23°C° 0 mm 2 m/s 751 mmHg 63%
    23:00 +21°C° 0 mm 2 m/s 751 mmHg 64%

    Depois de amanhã, 18 Agosto, Sábado

    Tempo Temperatura Precipitação Vento Pressão Humidade
    00:00 +21°C° 0 mm 2 m/s 751 mmHg 66%
    01:00 +20°C° 0 mm 2 m/s 751 mmHg 68%
    02:00 +20°C° 0 mm 2 m/s 751 mmHg 69%
    03:00 +20°C° 0 mm 2 m/s 751 mmHg 70%
    04:00 +19°C° 0 mm 2 m/s 752 mmHg 71%
    05:00 +20°C° 0 mm 2 m/s 752 mmHg 71%
    06:00 +22°C° 0 mm 1 m/s 752 mmHg 70%
    07:00 +22°C° 0 mm 1 m/s 752 mmHg 70%
    08:00 +24°C° 0,1 mm 1 m/s 752 mmHg 66%
    09:00 +25°C° 0,1 mm 2 m/s 752 mmHg 61%
    10:00 +27°C° 0,1 mm 2 m/s 752 mmHg 56%
    11:00 +27°C° 0,3 mm 2 m/s 752 mmHg 56%
    12:00 +27°C° 0,3 mm 2 m/s 752 mmHg 56%
    13:00 +27°C° 0,3 mm 2 m/s 752 mmHg 56%
    14:00 +26°C° 0,4 mm 2 m/s 752 mmHg 60%
    15:00 +26°C° 0,4 mm 3 m/s 752 mmHg 64%
    16:00 +25°C° 0,4 mm 3 m/s 752 mmHg 68%
    17:00 +24°C° 0,2 mm 3 m/s 752 mmHg 73%
    18:00 +22°C° 0,2 mm 3 m/s 753 mmHg 79%
    19:00 +20°C° 0,2 mm 3 m/s 753 mmHg 84%
    20:00 +19°C° 0 mm 3 m/s 753 mmHg 86%
    21:00 +18°C° 0 mm 3 m/s 753 mmHg 87%
    22:00 +17°C° 0 mm 2 m/s 754 mmHg 89%
    23:00 +17°C° 0 mm 2 m/s 754 mmHg 88%

    19 Agosto, Domingo

    Tempo Temperatura Precipitação Vento Pressão Humidade
    00:00 +16°C° 0 mm 2 m/s 754 mmHg 87%
    01:00 +15°C° 0 mm 2 m/s 754 mmHg 86%
    02:00 +15°C° 0 mm 2 m/s 754 mmHg 85%
    03:00 +14°C° 0 mm 2 m/s 754 mmHg 84%
    04:00 +14°C° 0 mm 2 m/s 754 mmHg 83%
    05:00 +15°C° 0 mm 2 m/s 754 mmHg 78%
    06:00 +16°C° 0 mm 2 m/s 754 mmHg 74%
    07:00 +18°C° 0 mm 2 m/s 754 mmHg 70%
    08:00 +19°C° 0 mm 3 m/s 754 mmHg 64%
    09:00 +21°C° 0 mm 3 m/s 754 mmHg 59%
    10:00 +24°C° 0 mm 3 m/s 754 mmHg 53%
    11:00 +24°C° 0 mm 3 m/s 754 mmHg 52%
    12:00 +25°C° 0 mm 4 m/s 754 mmHg 51%
    13:00 +26°C° 0 mm 4 m/s 754 mmHg 50%
    14:00 +26°C° 0 mm 4 m/s 754 mmHg 53%
    15:00 +25°C° 0 mm 4 m/s 754 mmHg 56%
    16:00 +25°C° 0 mm 3 m/s 754 mmHg 59%
    17:00 +24°C° 0 mm 3 m/s 754 mmHg 65%
    18:00 +21°C° 0 mm 2 m/s 754 mmHg 72%
    19:00 +20°C° 0 mm 2 m/s 754 mmHg 78%
    20:00 +19°C° 0 mm 2 m/s 754 mmHg 82%
    21:00 +19°C° 0 mm 1 m/s 754 mmHg 85%
    22:00 +18°C° 0 mm 1 m/s 754 mmHg 89%
    23:00 +18°C° 0 mm 1 m/s 754 mmHg 89%

    20 Agosto, Segunda-feira

    Tempo Temperatura Precipitação Vento Pressão Humidade
    00:00 +16°C° 0 mm 1 m/s 754 mmHg 90%
    01:00 +16°C° 0 mm 1 m/s 754 mmHg 91%
    02:00 +16°C° 0 mm 1 m/s 753 mmHg 91%
    03:00 +16°C° 0 mm 1 m/s 753 mmHg 91%
    04:00 +16°C° 0 mm 1 m/s 753 mmHg 92%
    05:00 +18°C° 0 mm 1 m/s 753 mmHg 88%
    06:00 +18°C° 0 mm 2 m/s 753 mmHg 84%
    07:00 +19°C° 0 mm 2 m/s 753 mmHg 80%
    08:00 +21°C° 0 mm 2 m/s 753 mmHg 74%
    09:00 +23°C° 0 mm 2 m/s 753 mmHg 68%
    10:00 +24°C° 0 mm 3 m/s 753 mmHg 62%
    11:00 +25°C° 0 mm 3 m/s 753 mmHg 59%
    12:00 +26°C° 0 mm 3 m/s 752 mmHg 55%
    13:00 +28°C° 0 mm 4 m/s 752 mmHg 52%
    14:00 +28°C° 0,3 mm 3 m/s 752 mmHg 53%
    15:00 +28°C° 0,3 mm 3 m/s 751 mmHg 54%
    16:00 +28°C° 0,3 mm 3 m/s 751 mmHg 54%
    17:00 +26°C° 0,1 mm 3 m/s 751 mmHg 58%
    18:00 +25°C° 0,1 mm 2 m/s 751 mmHg 62%
    19:00 +24°C° 0,1 mm 2 m/s 751 mmHg 66%
    20:00 +23°C° 0,1 mm 2 m/s 751 mmHg 67%
    21:00 +23°C° 0,1 mm 2 m/s 751 mmHg 69%
    22:00 +21°C° 0,1 mm 2 m/s 751 mmHg 70%
    23:00 +21°C° 0,1 mm 2 m/s 751 mmHg 72%

    21 Agosto, Terça-feira

    Tempo Temperatura Precipitação Vento Pressão Humidade
    00:00 +21°C° 0,1 mm 2 m/s 750 mmHg 75%
    01:00 +21°C° 0,1 mm 1 m/s 750 mmHg 77%
    02:00 +20°C° 0 mm 2 m/s 750 mmHg 79%
    03:00 +19°C° 0 mm 2 m/s 750 mmHg 82%
    04:00 +19°C° 0 mm 2 m/s 750 mmHg 85%
    05:00 +19°C° 0 mm 2 m/s 751 mmHg 83%
    06:00 +20°C° 0 mm 3 m/s 751 mmHg 81%
    07:00 +21°C° 0 mm 3 m/s 751 mmHg 79%
    08:00 +22°C° 0 mm 3 m/s 751 mmHg 74%
    09:00 +23°C° 0 mm 4 m/s 751 mmHg 70%
    10:00 +25°C° 0 mm 4 m/s 751 mmHg 65%
    11:00 +26°C° 0,1 mm 4 m/s 751 mmHg 62%
    12:00 +27°C° 0,1 mm 4 m/s 751 mmHg 59%
    13:00 +27°C° 0,1 mm 4 m/s 751 mmHg 56%
    14:00 +27°C° 0 mm 4 m/s 751 mmHg 56%
    15:00 +27°C° 0 mm 4 m/s 751 mmHg 56%
    16:00 +27°C° 0 mm 3 m/s 751 mmHg 56%
    17:00 +25°C° 0 mm 2 m/s 750 mmHg 62%
    18:00 +24°C° 0 mm 2 m/s 750 mmHg 67%
    19:00 +22°C° 0 mm 1 m/s 750 mmHg 73%
    20:00 +22°C° 0 mm 1 m/s 750 mmHg 74%
    21:00 +21°C° 0 mm 1 m/s 750 mmHg 76%
    22:00 +20°C° 0 mm 2 m/s 750 mmHg 78%
    23:00 +19°C° 0 mm 2 m/s 750 mmHg 78%
    Mostrar mais